Regional Weather Roundup
Issued by NWS

Home | Current Version | Previous Version | Text Only | Print | Product List | Glossary On
Versions: 1 2 3 4 5 6 7 8 9 10 11 12 13 14 15 16 17 18 19 20 21 22 23 24 25 26 27 28 29 30 31 32 33 34 35 36 37 38 39 40 41 42 43 44 45 46 47 48 49 50
000
ASUS43 KLSX 041659
RWRMO

WEATHER SUMMARY FOR MISSOURI
NATIONAL WEATHER SERVICE SPRINGFIELD MO
1100 AM CST WED MAR 04 2015

NOTE: "FAIR" INDICATES FEW OR NO CLOUDS BELOW 12,000 FEET WITH NO
       SIGNIFICANT WEATHER AND/OR OBSTRUCTIONS TO VISIBILITY.
       CURRENT SKY AND/OR WEATHER CONDITIONS ARE NOT AVAILABLE FOR
       CHILLICOTHE AND FARMINGTON.

MOZ001>031-035>038-043-044-053-054-041800-
...NORTHERN AND WESTERN MISSOURI...

CITY           SKY/WX    TMP DP  RH WIND       PRES   REMARKS
KANSAS CTY INT CLOUDY    23   6  48 N14G21    30.31S WCI  11
KANSAS C DTWN  PTSUNNY   25   5  42 N17       30.32F WCI  12
LEE`S SUMMIT   PTSUNNY   22   8  55 N18       30.30S WCI   7
ST JOSEPH      PTSUNNY   22   5  48 N13       30.35F WCI  10
CHILLICOTHE      N/A     24   4  42 N13G18    30.32F WCI  12

$$
MOZ066>068-077>081-088>096-101>105-041800-
...SOUTHWEST MISSOURI...

CITY           SKY/WX    TMP DP  RH WIND       PRES   REMARKS
SPRINGFIELD    LGT SNOW  23  19  85 N16       30.17R VSB 3/4 WCI  10
JOPLIN         LGT SNOW  21  16  81 N15G26    30.25R VSB 1   WCI   8

$$
MOZ032>034-039>042-045>050-055>058-069>072-041800-
...CENTRAL MISSOURI...

CITY           SKY/WX    TMP DP  RH WIND       PRES   REMARKS
COLUMBIA       CLOUDY    21   6  52 N15       30.26F WCI   8
JEFFERSON CITY CLOUDY    22   5  48 N17       30.31R WCI   8
ROLLA          LGT SNOW  18  11  74 N15       30.20R WCI   4
SEDALIA        CLOUDY    21   8  57 N20       30.29R WCI   6
OSAGE BEACH    CLOUDY    21  12  68 N12G20    30.24S WCI   9

$$
MOZ051-052-059>065-041800-
...EAST CENTRAL MISSOURI...

CITY           SKY/WX    TMP DP  RH WIND       PRES   REMARKS
ST LOUIS INTL  CLOUDY    23   8  52 N14       30.23S WCI  11
SPIRIT OF STL  CLOUDY    21   8  57 N7        30.23F WCI  12
ST CHARLES     CLOUDY    22   5  48 N8        30.23S WCI  12

$$
MOZ072>076-082>087-097>100-106>115-041800-
...SOUTH CENTRAL AND SOUTHEAST MISSOURI...

CITY           SKY/WX    TMP DP  RH WIND       PRES   REMARKS
CAPE GIRARDEAU FRZ RAIN  30  26  85 N18       30.12S FOG     WCI  18
FARMINGTON     CLOUDY    21  18  86 N14G20    30.20R VSB 1   WCI   8
POPLAR BLUFF   LGT RAIN  34  29  82 N18       30.09S WCI  23
WEST PLAINS    FRZ RAIN  25  19  78 N22G33    30.11F WCI  10

$$



USA.gov is the U.S. government's official web portal to all federal, state and local government web resources and services.